• In Russia
  • List of Countries
  • For 7 days
  • Water Temperature
  • Satellite Maps
  • Weather Map
  • Weather Widgets
  • user-avatar
    Login

    Hourly Weather Stepanakert

    Today, 23 November, Thursday

    Time Temperature Precipitation Wind Pressure Humidity
    00:00 +5°C° 0.3 mm 2 mps 688 mmHg 70%
    01:00 +5°C° 0.1 mm 2 mps 688 mmHg 71%
    02:00 +4°C° 0.1 mm 2 mps 688 mmHg 71%
    03:00 +5°C° 0.1 mm 1 mps 688 mmHg 71%
    04:00 +5°C° 0.1 mm 1 mps 689 mmHg 72%
    05:00 +5°C° 0.1 mm 1 mps 689 mmHg 73%
    06:00 +4°C° 0.1 mm 1 mps 689 mmHg 74%
    07:00 +5°C° 0 mm 1 mps 689 mmHg 71%
    08:00 +5°C° 0 mm 1 mps 690 mmHg 67%
    09:00 +5°C° 0 mm 2 mps 689 mmHg 60%
    10:00 +5°C° 0 mm 2 mps 689 mmHg 56%
    11:00 +6°C° 0 mm 2 mps 689 mmHg 52%
    12:00 +7°C° 0 mm 2 mps 689 mmHg 48%
    13:00 +7°C° 0 mm 2 mps 689 mmHg 49%
    14:00 +7°C° 0 mm 2 mps 689 mmHg 49%
    15:00 +6°C° 0 mm 2 mps 689 mmHg 50%
    16:00 +6°C° 0 mm 2 mps 689 mmHg 55%
    17:00 +5°C° 0 mm 2 mps 690 mmHg 61%
    18:00 +5°C° 0 mm 1 mps 690 mmHg 67%
    19:00 +4°C° 0 mm 1 mps 690 mmHg 67%
    20:00 +4°C° 0 mm 1 mps 690 mmHg 68%
    21:00 +4°C° 0 mm 1 mps 691 mmHg 68%
    22:00 +2°C° 0 mm 2 mps 691 mmHg 68%
    23:00 +2°C° 0 mm 2 mps 691 mmHg 69%

    Tomorrow, 24 November, Friday

    Time Temperature Precipitation Wind Pressure Humidity
    00:00 +2°C° 0 mm 2 mps 691 mmHg 69%
    01:00 +2°C° 0 mm 2 mps 691 mmHg 70%
    02:00 +1°C° 0 mm 2 mps 691 mmHg 70%
    03:00 +1°C° 0 mm 2 mps 692 mmHg 71%
    04:00 +1°C° 0 mm 2 mps 692 mmHg 71%
    05:00 +1°C° 0 mm 2 mps 692 mmHg 71%
    06:00 +1°C° 0 mm 2 mps 692 mmHg 71%
    07:00 +1°C° 0.1 mm 2 mps 692 mmHg 68%
    08:00 +2°C° 0.1 mm 2 mps 693 mmHg 64%
    09:00 +1°C° 0.1 mm 3 mps 693 mmHg 61%
    10:00 +1°C° 0.1 mm 3 mps 693 mmHg 60%
    11:00 +2°C° 0.1 mm 3 mps 693 mmHg 59%
    12:00 +2°C° 0.1 mm 3 mps 693 mmHg 58%
    13:00 +2°C° 0.1 mm 3 mps 693 mmHg 58%
    14:00 +2°C° 0.1 mm 3 mps 693 mmHg 58%
    15:00 +2°C° 0.1 mm 2 mps 693 mmHg 58%
    16:00 +2°C° 0 mm 2 mps 693 mmHg 61%
    17:00 +2°C° 0 mm 1 mps 694 mmHg 64%
    18:00 +1°C° 0 mm 1 mps 694 mmHg 67%
    19:00 +1°C° 0 mm 1 mps 694 mmHg 66%
    20:00 +1°C° 0 mm 1 mps 694 mmHg 65%
    21:00 +1°C° 0 mm 1 mps 694 mmHg 64%
    22:00 -2°C° 0 mm 2 mps 694 mmHg 62%
    23:00 -2°C° 0 mm 2 mps 694 mmHg 60%

    Day after tomorrow, 25 November, Saturday

    Time Temperature Precipitation Wind Pressure Humidity
    00:00 -2°C° 0 mm 2 mps 694 mmHg 58%
    01:00 -2°C° 0 mm 2 mps 694 mmHg 57%
    02:00 -2°C° 0 mm 2 mps 694 mmHg 56%
    03:00 -2°C° 0 mm 2 mps 695 mmHg 55%
    04:00 -2°C° 0 mm 2 mps 695 mmHg 54%
    05:00 -2°C° 0 mm 2 mps 695 mmHg 54%
    06:00 -2°C° 0 mm 2 mps 696 mmHg 54%
    07:00 -1°C° 0 mm 2 mps 696 mmHg 50%
    08:00 +1°C° 0 mm 2 mps 697 mmHg 47%
    09:00 +2°C° 0 mm 2 mps 698 mmHg 44%
    10:00 +3°C° 0 mm 2 mps 698 mmHg 41%
    11:00 +4°C° 0 mm 2 mps 698 mmHg 39%
    12:00 +4°C° 0 mm 3 mps 699 mmHg 37%
    13:00 +4°C° 0 mm 3 mps 699 mmHg 38%
    14:00 +4°C° 0 mm 3 mps 699 mmHg 39%
    15:00 +4°C° 0 mm 2 mps 699 mmHg 40%
    16:00 +3°C° 0 mm 2 mps 699 mmHg 45%
    17:00 +3°C° 0 mm 1 mps 700 mmHg 50%
    18:00 +1°C° 0 mm 1 mps 700 mmHg 56%
    19:00 +1°C° 0 mm 1 mps 700 mmHg 55%
    20:00 +1°C° 0 mm 1 mps 700 mmHg 55%
    21:00 -1°C° 0 mm 2 mps 701 mmHg 54%
    22:00 -1°C° 0 mm 2 mps 701 mmHg 53%
    23:00 -2°C° 0 mm 2 mps 701 mmHg 52%

    26 November, Sunday

    Time Temperature Precipitation Wind Pressure Humidity
    00:00 0°C° 0 mm 1 mps 701 mmHg 51%
    01:00 0°C° 0 mm 1 mps 700 mmHg 50%
    02:00 0°C° 0 mm 1 mps 700 mmHg 49%
    03:00 0°C° 0 mm 1 mps 700 mmHg 48%
    04:00 0°C° 0 mm 1 mps 700 mmHg 48%
    05:00 -1°C° 0 mm 1 mps 700 mmHg 48%
    06:00 -1°C° 0 mm 1 mps 700 mmHg 49%
    07:00 0°C° 0 mm 1 mps 700 mmHg 46%
    08:00 +2°C° 0 mm 1 mps 700 mmHg 43%
    09:00 +3°C° 0 mm 1 mps 700 mmHg 40%
    10:00 +4°C° 0 mm 1 mps 700 mmHg 40%
    11:00 +4°C° 0 mm 2 mps 699 mmHg 40%
    12:00 +5°C° 0 mm 2 mps 699 mmHg 40%
    13:00 +5°C° 0 mm 2 mps 698 mmHg 42%
    14:00 +5°C° 0 mm 2 mps 698 mmHg 43%
    15:00 +5°C° 0 mm 2 mps 697 mmHg 45%
    16:00 +4°C° 0 mm 1 mps 697 mmHg 48%
    17:00 +3°C° 0 mm 1 mps 697 mmHg 51%
    18:00 +2°C° 0 mm 1 mps 697 mmHg 55%
    19:00 +2°C° 0 mm 1 mps 697 mmHg 53%
    20:00 +2°C° 0 mm 1 mps 697 mmHg 51%
    21:00 +2°C° 0 mm 1 mps 697 mmHg 49%
    22:00 +2°C° 0 mm 1 mps 697 mmHg 47%
    23:00 +2°C° 0 mm 1 mps 697 mmHg 45%

    27 November, Monday

    Time Temperature Precipitation Wind Pressure Humidity
    00:00 +2°C° 0 mm 1 mps 696 mmHg 44%
    01:00 +1°C° 0 mm 1 mps 696 mmHg 43%
    02:00 +1°C° 0 mm 1 mps 696 mmHg 42%
    03:00 -1°C° 0 mm 2 mps 696 mmHg 40%
    04:00 -1°C° 0 mm 2 mps 696 mmHg 40%
    05:00 +1°C° 0 mm 1 mps 696 mmHg 39%
    06:00 +1°C° 0 mm 1 mps 696 mmHg 38%
    07:00 +3°C° 0 mm 1 mps 696 mmHg 36%
    08:00 +4°C° 0 mm 1 mps 696 mmHg 34%
    09:00 +6°C° 0 mm 1 mps 696 mmHg 32%
    10:00 +7°C° 0 mm 1 mps 696 mmHg 31%
    11:00 +8°C° 0 mm 1 mps 696 mmHg 30%
    12:00 +9°C° 0 mm 1 mps 695 mmHg 29%
    13:00 +9°C° 0 mm 1 mps 695 mmHg 31%
    14:00 +9°C° 0 mm 1 mps 695 mmHg 32%
    15:00 +9°C° 0 mm 1 mps 694 mmHg 34%
    16:00 +7°C° 0 mm 1 mps 694 mmHg 37%
    17:00 +6°C° 0 mm 1 mps 694 mmHg 41%
    18:00 +5°C° 0 mm 1 mps 694 mmHg 44%
    19:00 +4°C° 0 mm 1 mps 694 mmHg 44%
    20:00 +4°C° 0 mm 1 mps 694 mmHg 43%
    21:00 +4°C° 0 mm 1 mps 694 mmHg 43%
    22:00 +4°C° 0 mm 1 mps 694 mmHg 43%
    23:00 +4°C° 0 mm 1 mps 694 mmHg 42%

    28 November, Tuesday

    Time Temperature Precipitation Wind Pressure Humidity
    00:00 +3°C° 0 mm 1 mps 693 mmHg 42%
    01:00 +3°C° 0 mm 1 mps 693 mmHg 43%
    02:00 +3°C° 0 mm 1 mps 693 mmHg 43%
    03:00 +3°C° 0 mm 1 mps 693 mmHg 44%
    04:00 +3°C° 0 mm 1 mps 693 mmHg 44%
    05:00 +3°C° 0 mm 1 mps 693 mmHg 45%
    06:00 +3°C° 0 mm 1 mps 693 mmHg 46%
    07:00 +4°C° 0 mm 1 mps 693 mmHg 43%
    08:00 +6°C° 0 mm 1 mps 694 mmHg 41%
    09:00 +7°C° 0 mm 1 mps 694 mmHg 38%
    10:00 +8°C° 0 mm 1 mps 694 mmHg 36%
    11:00 +9°C° 0 mm 1 mps 693 mmHg 35%
    12:00 +9°C° 0 mm 2 mps 693 mmHg 33%
    13:00 +9°C° 0 mm 2 mps 693 mmHg 34%
    14:00 +9°C° 0 mm 2 mps 693 mmHg 35%
    15:00 +10°C° 0 mm 1 mps 692 mmHg 36%
    16:00 +8°C° 0 mm 1 mps 692 mmHg 39%
    17:00 +7°C° 0 mm 1 mps 693 mmHg 42%
    18:00 +6°C° 0 mm 1 mps 693 mmHg 46%
    19:00 +5°C° 0 mm 1 mps 693 mmHg 46%
    20:00 +5°C° 0 mm 1 mps 693 mmHg 47%
    21:00 +5°C° 0 mm 1 mps 693 mmHg 47%
    22:00 +5°C° 0 mm 1 mps 693 mmHg 48%
    23:00 +5°C° 0 mm 1 mps 693 mmHg 48%
    Show more